Date,Time,Wetness (Wet Dry or Ice),Wind Speed (m/s),Temperature (C),Humidity (%),Pressure (mb),Radiation (W/m^2)
2019-01-01,00:15:00,DRY,8.25,4.90,11.5,774.00,1.4
2019-01-01,00:20:00,DRY,7.80,5.03,10.7,774.00,1.2
2019-01-01,00:25:00,DRY,6.25,5.05,10.5,774.00,1.7
2019-01-01,00:30:00,DRY,5.60,5.27,9.7,774.00,1.5
2019-01-01,00:35:00,DRY,5.65,5.30,10.0,774.00,1.6
2019-01-01,00:40:00,DRY,6.13,5.33,9.3,774.00,1.1
2019-01-01,00:45:00,DRY,5.55,5.15,10.0,774.00,1.4
2019-01-01,00:50:00,DRY,5.70,5.03,11.0,774.00,1.0
2019-01-01,00:55:00,DRY,4.85,5.00,10.0,774.00,0.9
2019-01-01,01:00:00,DRY,6.90,5.03,10.7,774.00,1.1
2019-01-01,01:05:00,DRY,3.70,5.15,11.0,774.00,1.5
2019-01-01,01:10:00,DRY,4.00,4.87,11.7,774.00,0.7
2019-01-01,01:15:00,DRY,5.15,4.90,10.5,774.50,1.1
2019-01-01,01:20:00,DRY,5.40,4.90,11.0,774.00,0.8
2019-01-01,01:25:00,DRY,5.85,4.70,11.5,774.00,1.1
2019-01-01,01:30:00,DRY,6.13,4.43,12.7,774.00,1.1
2019-01-01,01:35:00,DRY,6.75,4.60,11.5,774.00,1.1
2019-01-01,01:40:00,DRY,5.83,4.57,11.3,774.00,1.1
2019-01-01,01:45:00,DRY,5.30,4.60,12.0,774.00,1.5
2019-01-01,01:50:00,DRY,6.40,4.57,12.3,774.00,1.2
2019-01-01,01:55:00,DRY,7.90,4.50,12.5,774.00,1.0
2019-01-01,02:00:00,DRY,7.40,4.67,11.0,774.00,1.8
2019-01-01,02:05:00,DRY,5.25,4.70,11.0,774.00,1.5
2019-01-01,02:10:00,DRY,7.77,4.63,11.3,774.00,1.5
2019-01-01,02:15:00,DRY,8.30,4.55,11.5,774.00,1.1
2019-01-01,02:20:00,DRY,7.37,4.67,11.7,774.00,1.0
2019-01-01,02:25:00,DRY,6.45,4.65,11.5,774.00,1.1
2019-01-01,02:30:00,DRY,5.43,4.63,11.7,774.00,1.1
2019-01-01,02:35:00,DRY,6.85,4.85,10.0,774.00,1.3
2019-01-01,02:40:00,DRY,8.00,4.97,10.3,774.00,1.2
2019-01-01,02:45:00,DRY,6.40,4.90,11.0,774.00,1.3
2019-01-01,02:50:00,DRY,7.47,4.80,11.0,774.00,1.1
2019-01-01,02:55:00,DRY,6.55,4.80,11.0,774.00,1.3
2019-01-01,03:00:00,DRY,7.20,4.77,11.3,774.00,1.4
2019-01-01,03:05:00,DRY,5.30,4.65,11.0,774.00,0.8
2019-01-01,03:10:00,DRY,7.27,4.70,11.0,774.00,1.1
2019-01-01,03:15:00,DRY,8.20,4.60,12.0,774.00,1.1
2019-01-01,03:20:00,DRY,7.23,4.67,11.3,774.00,1.0
2019-01-01,03:25:00,DRY,8.60,4.55,12.0,774.00,1.1
2019-01-01,03:30:00,DRY,9.23,4.50,12.0,774.00,1.2
2019-01-01,03:35:00,DRY,8.90,4.50,11.5,774.00,1.1
2019-01-01,03:40:00,DRY,7.10,4.73,11.0,774.00,1.1
2019-01-01,03:45:00,DRY,8.10,4.70,11.0,774.00,1.1
2019-01-01,03:50:00,DRY,7.90,4.60,11.3,774.00,0.7
2019-01-01,03:55:00,DRY,6.90,4.25,12.0,774.00,1.1
2019-01-01,04:00:00,DRY,7.77,4.03,13.0,774.00,1.0
2019-01-01,04:05:00,DRY,8.30,4.30,12.0,774.00,1.5
2019-01-01,04:10:00,DRY,8.63,4.23,12.0,774.00,1.8
2019-01-01,04:15:00,DRY,8.45,4.15,12.0,774.00,1.9
2019-01-01,04:20:00,DRY,7.20,4.17,12.0,774.00,1.3
2019-01-01,04:25:00,DRY,9.50,4.30,12.0,774.00,1.1
2019-01-01,04:30:00,DRY,6.77,4.43,11.3,774.00,1.4
2019-01-01,04:35:00,DRY,7.40,4.40,12.0,774.00,0.8
2019-01-01,04:40:00,DRY,7.27,4.67,11.3,774.00,1.0
2019-01-01,04:45:00,DRY,8.55,4.60,11.5,774.00,2.1
2019-01-01,04:50:00,DRY,6.17,4.43,12.0,774.00,1.1
2019-01-01,04:55:00,DRY,7.15,4.50,12.0,774.00,0.4
2019-01-01,05:00:00,DRY,6.80,4.67,11.7,774.00,1.0
2019-01-01,05:05:00,DRY,8.40,4.60,12.0,774.00,1.1
2019-01-01,05:10:00,DRY,6.97,4.43,12.0,774.00,1.5
2019-01-01,05:15:00,DRY,7.20,4.40,12.0,774.00,1.2
2019-01-01,05:20:00,DRY,7.00,4.30,12.3,774.00,1.0
2019-01-01,05:25:00,DRY,8.70,4.05,13.5,774.00,1.0
2019-01-01,05:30:00,DRY,6.87,3.83,14.7,774.00,1.1
2019-01-01,05:35:00,DRY,8.25,3.80,15.5,774.00,1.0
2019-01-01,05:40:00,DRY,7.23,3.80,15.7,774.00,1.2
2019-01-01,05:45:00,DRY,7.25,4.00,14.5,774.00,1.6
2019-01-01,05:50:00,DRY,7.67,4.17,13.7,774.00,1.7
2019-01-01,05:55:00,DRY,7.65,3.95,14.5,774.00,1.1
2019-01-01,06:00:00,DRY,8.33,3.70,15.0,774.33,1.2
2019-01-01,06:05:00,DRY,8.20,3.95,15.5,774.00,1.1
2019-01-01,06:10:00,DRY,7.67,4.03,13.3,774.67,0.7
2019-01-01,06:15:00,DRY,6.65,4.30,12.0,775.00,1.2
2019-01-01,06:20:00,DRY,6.93,4.00,12.7,775.00,1.1
2019-01-01,06:25:00,DRY,8.00,3.80,12.5,775.00,1.2
2019-01-01,06:30:00,DRY,8.63,3.67,12.0,775.00,1.2
2019-01-01,06:35:00,DRY,7.35,3.80,10.0,775.00,1.0
2019-01-01,06:40:00,DRY,7.83,4.13,8.0,775.00,1.4
2019-01-01,06:45:00,DRY,8.80,4.20,9.0,775.00,1.8
2019-01-01,06:50:00,DRY,9.10,4.20,9.3,775.00,1.1
2019-01-01,06:55:00,DRY,8.90,3.70,10.0,775.00,1.1
2019-01-01,07:00:00,DRY,7.03,3.27,13.0,775.00,1.1
2019-01-01,07:05:00,DRY,6.80,3.25,12.0,775.00,0.9
2019-01-01,07:10:00,DRY,8.80,3.70,10.0,775.00,1.1
2019-01-01,07:15:00,DRY,8.40,3.75,9.5,775.00,0.9
2019-01-01,07:20:00,DRY,6.57,3.50,10.3,775.00,0.8
2019-01-01,07:25:00,DRY,7.10,2.90,14.5,775.00,1.0
2019-01-01,07:30:00,DRY,8.10,2.80,15.7,775.33,1.0
2019-01-01,07:35:00,DRY,7.70,2.80,17.0,775.00,1.1
2019-01-01,07:40:00,DRY,6.80,2.65,17.5,775.50,1.4
2019-01-01,07:45:00,DRY,7.50,2.65,19.0,775.00,1.1
2019-01-01,07:50:00,DRY,7.90,2.67,19.3,775.67,1.7
2019-01-01,07:55:00,DRY,7.55,2.65,20.0,776.00,2.7
2019-01-01,08:00:00,DRY,8.77,2.67,20.3,775.67,5.1
2019-01-01,08:05:00,DRY,6.70,2.55,22.0,776.00,8.6
2019-01-01,08:10:00,DRY,6.93,2.63,21.3,776.00,10.8
2019-01-01,08:15:00,DRY,7.00,2.70,21.0,776.00,13.8
2019-01-01,08:20:00,DRY,7.30,2.70,22.3,776.00,18.4
2019-01-01,08:25:00,DRY,5.20,2.65,23.0,776.00,23.1
2019-01-01,08:30:00,DRY,6.20,2.53,24.3,776.00,26.7
2019-01-01,08:35:00,DRY,8.15,2.60,23.5,776.00,32.2
2019-01-01,08:40:00,DRY,6.57,2.83,24.0,776.00,36.1
2019-01-01,08:45:00,DRY,8.05,2.75,26.5,776.00,64.8
2019-01-01,08:50:00,DRY,7.37,2.83,28.0,776.00,185.7
2019-01-01,08:55:00,DRY,7.70,3.00,27.0,776.00,189.7
2019-01-01,09:00:00,DRY,6.77,3.10,26.3,776.33,237.2
2019-01-01,09:05:00,DRY,4.90,3.05,27.5,776.50,266.3
2019-01-01,09:10:00,DRY,7.33,3.27,26.0,777.00,274.2
2019-01-01,09:15:00,DRY,4.85,3.15,27.5,777.00,206.4
2019-01-01,09:20:00,DRY,5.87,3.37,26.3,777.00,123.7
2019-01-01,09:25:00,DRY,7.00,3.05,28.5,777.00,95.2
2019-01-01,09:30:00,DRY,7.23,3.07,29.0,777.00,237.3
2019-01-01,09:35:00,DRY,5.05,3.65,24.0,777.00,356.4
2019-01-01,09:40:00,DRY,5.87,3.67,28.0,777.00,342.8
2019-01-01,09:45:00,DRY,4.95,3.45,30.0,777.00,171.9
2019-01-01,09:50:00,DRY,5.50,3.80,25.3,777.00,358.8
2019-01-01,09:55:00,DRY,7.50,3.90,28.0,777.00,404.9
2019-01-01,10:00:00,DRY,4.90,3.67,30.3,777.00,435.9
2019-01-01,10:05:00,DRY,6.35,4.15,29.0,777.00,480.2
2019-01-01,10:10:00,DRY,4.17,4.33,29.0,777.33,419.2
2019-01-01,10:15:00,DRY,4.25,4.30,28.5,777.50,198.8
2019-01-01,10:20:00,DRY,4.70,4.03,28.0,777.33,346.6
2019-01-01,10:25:00,DRY,6.30,4.15,26.5,777.00,138.3
2019-01-01,10:30:00,DRY,5.50,4.50,21.3,777.33,439.2
2019-01-01,10:35:00,DRY,7.05,4.70,24.5,777.50,543.9
2019-01-01,10:40:00,DRY,6.10,5.23,18.3,777.67,569.7
2019-01-01,10:45:00,DRY,5.85,5.35,22.0,778.00,475.4
2019-01-01,10:50:00,DRY,7.10,5.53,21.3,778.00,573.4
2019-01-01,10:55:00,DRY,7.05,5.80,17.5,778.00,541.0
2019-01-01,11:00:00,DRY,6.70,5.73,21.7,777.67,598.3
2019-01-01,11:05:00,DRY,7.40,5.80,23.5,778.00,578.5
2019-01-01,11:10:00,DRY,6.17,6.17,20.3,778.00,637.7
2019-01-01,11:15:00,DRY,5.25,6.70,21.0,778.00,703.2
2019-01-01,11:20:00,DRY,6.63,6.57,19.0,777.33,522.2
2019-01-01,11:25:00,DRY,6.45,6.75,15.5,777.00,514.5
2019-01-01,11:30:00,DRY,7.27,6.87,18.3,777.33,579.8
2019-01-01,11:35:00,DRY,6.00,6.60,20.5,778.00,540.8
2019-01-01,11:40:00,DRY,6.03,6.47,22.7,778.00,465.5
2019-01-01,11:45:00,DRY,5.30,6.40,22.5,778.00,680.0
2019-01-01,11:50:00,DRY,5.90,6.77,18.7,777.33,654.8
2019-01-01,11:55:00,DRY,5.75,6.45,21.0,777.00,255.4
2019-01-01,12:00:00,DRY,5.47,5.97,21.3,777.00,289.0
2019-01-01,12:05:00,DRY,5.80,6.25,20.0,777.00,771.4
2019-01-01,12:10:00,DRY,5.23,7.33,15.7,777.67,863.2
2019-01-01,12:15:00,DRY,6.75,7.85,15.5,777.00,700.2
2019-01-01,12:20:00,DRY,4.50,7.73,13.7,777.00,429.7
2019-01-01,12:25:00,DRY,4.45,7.40,15.0,777.00,502.5
2019-01-01,12:30:00,DRY,4.73,7.57,16.7,777.00,616.2
2019-01-01,12:35:00,DRY,5.00,7.60,18.0,777.00,732.0
2019-01-01,12:40:00,DRY,5.13,7.60,20.7,777.00,786.0
2019-01-01,12:45:00,DRY,6.55,7.90,16.0,777.00,834.5
2019-01-01,12:50:00,DRY,5.07,7.70,21.0,777.00,810.9
2019-01-01,12:55:00,DRY,5.15,7.45,23.0,777.00,364.0
2019-01-01,13:00:00,DRY,4.63,7.40,20.7,777.00,586.9
2019-01-01,13:05:00,DRY,3.90,7.75,19.0,777.00,730.0
2019-01-01,13:10:00,DRY,5.50,8.07,18.0,777.00,783.8
2019-01-01,13:15:00,DRY,4.55,8.55,17.0,777.00,776.0
2019-01-01,13:20:00,DRY,4.23,8.57,16.7,777.00,756.2
2019-01-01,13:25:00,DRY,5.30,8.15,23.0,777.00,720.5
2019-01-01,13:30:00,DRY,5.80,7.60,24.0,777.00,665.7
2019-01-01,13:35:00,DRY,3.20,8.90,15.0,777.00,685.6
2019-01-01,13:40:00,DRY,4.00,8.60,18.7,777.00,716.6
2019-01-01,13:45:00,DRY,4.20,8.30,22.5,777.00,710.7
2019-01-01,13:50:00,DRY,4.83,8.47,21.0,777.00,721.0
2019-01-01,13:55:00,DRY,5.30,8.45,23.5,777.00,716.6
2019-01-01,14:00:00,DRY,4.13,8.10,28.3,777.00,710.5
2019-01-01,14:05:00,DRY,3.65,7.90,32.0,777.00,705.8
2019-01-01,14:10:00,DRY,3.33,7.90,28.3,777.00,700.4
2019-01-01,14:15:00,DRY,3.65,8.10,30.0,777.00,694.6
2019-01-01,14:20:00,DRY,3.17,8.13,28.7,777.00,688.5
2019-01-01,14:25:00,DRY,2.80,8.55,27.5,777.00,682.7
2019-01-01,14:30:00,DRY,2.60,8.30,31.7,777.00,674.8
2019-01-01,14:35:00,DRY,3.75,8.05,34.5,777.00,668.2
2019-01-01,14:40:00,DRY,3.90,7.67,37.3,777.00,658.5
2019-01-01,14:45:00,DRY,3.10,7.95,38.0,777.00,650.3
2019-01-01,14:50:00,DRY,3.83,7.33,40.3,777.00,640.4
2019-01-01,14:55:00,DRY,2.80,7.60,38.0,777.00,632.1
2019-01-01,15:00:00,DRY,4.33,7.70,34.0,777.00,622.6
2019-01-01,15:05:00,DRY,4.05,8.15,28.0,777.00,612.0
2019-01-01,15:10:00,DRY,2.87,8.40,30.3,777.00,601.8
2019-01-01,15:15:00,DRY,4.95,8.25,30.0,777.00,591.0
2019-01-01,15:20:00,DRY,5.03,8.23,26.7,777.00,580.0
2019-01-01,15:25:00,DRY,5.10,8.05,29.5,777.00,566.9
2019-01-01,15:30:00,DRY,4.00,7.80,36.0,777.00,554.6
2019-01-01,15:35:00,DRY,3.80,7.50,38.5,777.00,540.9
2019-01-01,15:40:00,DRY,3.93,7.20,41.0,777.00,528.0
2019-01-01,15:45:00,DRY,5.35,7.35,41.5,777.00,516.2
2019-01-01,15:50:00,DRY,3.70,7.20,41.7,777.00,501.5
2019-01-01,15:55:00,DRY,3.20,7.25,40.5,777.00,488.4
2019-01-01,16:00:00,DRY,3.77,6.90,46.0,777.00,471.7
2019-01-01,16:05:00,DRY,4.60,6.70,47.0,777.00,457.0
2019-01-01,16:10:00,DRY,4.00,6.53,47.3,777.00,442.0
2019-01-01,16:15:00,DRY,2.70,6.60,47.5,777.00,426.0
2019-01-01,16:20:00,DRY,1.97,6.43,47.0,777.00,411.6
2019-01-01,16:25:00,DRY,4.05,6.30,47.0,777.00,395.3
2019-01-01,16:30:00,DRY,3.93,6.23,48.7,777.00,378.6
2019-01-01,16:35:00,DRY,4.35,6.15,48.0,777.00,362.4
2019-01-01,16:40:00,DRY,3.53,6.03,48.7,777.00,346.1
2019-01-01,16:45:00,DRY,2.35,6.05,47.5,777.00,331.2
2019-01-01,16:50:00,DRY,3.63,6.03,49.7,777.00,313.8
2019-01-01,16:55:00,DRY,3.95,5.95,48.5,777.00,298.2
2019-01-01,17:00:00,DRY,3.43,6.00,51.3,777.00,280.6
2019-01-01,17:05:00,DRY,5.15,5.80,50.5,777.00,262.2
2019-01-01,17:10:00,DRY,3.83,5.77,51.7,777.00,243.5
2019-01-01,17:15:00,DRY,4.35,6.10,34.0,777.00,226.0
2019-01-01,17:20:00,DRY,2.53,6.37,32.0,777.67,208.9
2019-01-01,17:25:00,DRY,1.90,6.60,29.5,778.00,191.9
2019-01-01,17:30:00,DRY,1.40,6.63,27.7,778.00,174.7
2019-01-01,17:35:00,DRY,1.60,6.80,20.5,778.00,159.3
2019-01-01,17:40:00,DRY,2.10,6.77,17.0,778.00,141.8
2019-01-01,17:45:00,DRY,2.40,6.70,15.5,778.00,119.2
2019-01-01,17:50:00,DRY,2.07,6.77,14.3,778.00,97.2
2019-01-01,17:55:00,DRY,2.65,6.85,14.0,778.00,75.5
2019-01-01,18:00:00,DRY,2.67,6.80,14.0,778.00,54.7
2019-01-01,18:05:00,DRY,5.20,6.45,15.0,778.00,41.0
2019-01-01,18:10:00,DRY,5.90,6.70,13.0,778.00,25.0
2019-01-01,18:15:00,DRY,6.55,6.60,13.5,778.00,16.6
2019-01-01,18:20:00,DRY,4.13,6.77,12.0,778.00,13.8
2019-01-01,18:25:00,DRY,3.15,6.80,11.0,778.00,9.5
2019-01-01,18:30:00,DRY,5.80,6.80,9.5,778.00,5.8
2019-01-01,18:35:00,DRY,5.95,6.65,10.5,778.00,3.8
2019-01-01,18:40:00,DRY,3.20,6.53,11.0,778.00,2.6
2019-01-01,18:45:00,DRY,3.45,6.65,8.5,778.00,1.8
2019-01-01,18:50:00,DRY,2.70,6.40,11.0,778.00,1.2
2019-01-01,18:55:00,DRY,3.65,6.55,8.0,778.00,1.6
2019-01-01,19:00:00,DRY,3.07,6.53,8.7,778.00,0.9
2019-01-01,19:05:00,DRY,1.80,6.60,8.0,778.00,0.7
2019-01-01,19:10:00,DRY,2.20,6.43,8.3,778.67,1.5
2019-01-01,19:15:00,DRY,4.80,6.50,8.5,778.00,1.1
2019-01-01,19:20:00,DRY,3.57,6.37,9.7,778.00,1.0
2019-01-01,19:25:00,DRY,3.95,6.25,9.5,778.50,1.5
2019-01-01,19:30:00,DRY,4.70,6.23,10.0,778.33,1.0
2019-01-01,19:35:00,DRY,5.05,6.35,9.5,778.00,1.1
2019-01-01,19:40:00,DRY,4.90,6.20,10.3,778.00,1.1
2019-01-01,19:45:00,DRY,5.00,6.20,10.0,779.00,1.3
2019-01-01,19:50:00,DRY,5.13,6.13,10.7,779.00,1.2
2019-01-01,19:55:00,DRY,5.50,6.25,9.5,778.50,1.2
2019-01-01,20:00:00,DRY,4.80,6.13,9.7,779.00,1.2
2019-01-01,20:05:00,DRY,2.65,6.05,9.0,779.00,1.1
2019-01-01,20:10:00,DRY,2.37,5.93,9.3,779.00,1.0
2019-01-01,20:15:00,DRY,3.55,5.95,9.5,779.00,1.4
2019-01-01,20:20:00,DRY,3.30,5.83,9.3,779.00,1.3
2019-01-01,20:25:00,DRY,3.55,5.70,9.5,779.00,1.5
2019-01-01,20:30:00,DRY,3.90,5.67,10.0,779.00,0.8
2019-01-01,20:35:00,DRY,4.65,5.85,9.5,779.00,1.7
2019-01-01,20:40:00,DRY,4.10,5.90,9.3,779.00,1.4
2019-01-01,20:45:00,DRY,2.90,5.90,9.0,779.00,1.3
2019-01-01,20:50:00,DRY,2.73,5.87,9.0,779.00,1.6
2019-01-01,20:55:00,DRY,2.60,5.75,10.0,779.00,0.9
2019-01-01,21:00:00,DRY,2.30,5.77,10.0,779.00,0.9
2019-01-01,21:05:00,DRY,1.35,6.05,9.5,779.00,1.5
2019-01-01,21:10:00,DRY,1.77,5.93,10.0,779.00,2.0
2019-01-01,21:15:00,DRY,1.85,5.95,9.5,779.00,2.1
2019-01-01,21:20:00,DRY,1.70,5.97,10.0,779.33,0.8
2019-01-01,21:25:00,DRY,2.45,5.85,10.0,779.00,1.9
2019-01-01,21:30:00,DRY,3.17,5.90,10.0,779.00,1.1
2019-01-01,21:35:00,DRY,3.50,5.90,10.0,779.00,1.4
2019-01-01,21:40:00,DRY,3.47,6.00,10.0,779.00,1.4
2019-01-01,21:45:00,DRY,4.45,6.05,9.0,779.00,1.3
2019-01-01,21:50:00,DRY,3.53,6.13,9.0,779.00,1.2
2019-01-01,21:55:00,DRY,4.45,6.35,8.5,779.00,1.2
2019-01-01,22:00:00,DRY,3.03,6.60,8.0,779.00,1.7
2019-01-01,22:05:00,DRY,3.20,6.90,7.5,779.00,0.9
2019-01-01,22:10:00,DRY,3.27,6.97,7.0,779.00,0.9
2019-01-01,22:15:00,DRY,3.05,6.85,7.0,779.00,0.7
2019-01-01,22:20:00,DRY,3.07,6.90,7.0,779.00,1.3
2019-01-01,22:25:00,DRY,3.55,6.75,8.0,779.50,0.9
2019-01-01,22:30:00,DRY,3.83,6.67,7.7,779.00,1.4
2019-01-01,22:35:00,DRY,3.25,6.45,8.0,779.00,1.4
2019-01-01,22:40:00,DRY,3.53,6.53,8.3,779.00,2.0
2019-01-01,22:45:00,DRY,2.60,6.65,8.0,779.00,1.4
2019-01-01,22:50:00,DRY,3.37,6.60,8.0,779.33,1.2
2019-01-01,22:55:00,DRY,3.90,6.55,8.0,779.00,1.2
2019-01-01,23:00:00,DRY,4.00,6.60,8.0,779.33,0.7
2019-01-01,23:05:00,DRY,4.65,6.65,8.0,779.00,1.5
2019-01-01,23:10:00,DRY,4.60,6.53,8.0,779.00,1.3
2019-01-01,23:15:00,DRY,3.75,6.70,7.5,779.00,1.6
2019-01-01,23:20:00,DRY,3.43,6.67,7.0,779.00,0.8
2019-01-01,23:25:00,DRY,3.55,6.55,8.0,779.00,1.0
2019-01-01,23:30:00,DRY,4.20,6.53,7.7,779.00,1.4
2019-01-01,23:35:00,DRY,3.05,6.45,8.0,779.00,1.7
2019-01-01,23:40:00,DRY,3.03,6.43,8.0,779.00,0.8
2019-01-01,23:45:00,DRY,2.05,6.50,7.5,779.00,0.4
2019-01-01,23:50:00,DRY,1.73,6.77,7.0,779.00,1.2
2019-01-01,23:55:00,DRY,1.10,6.80,7.0,779.00,0.7
2019-01-02,00:00:00,DRY,1.83,6.90,7.0,779.00,0.9
2019-01-02,00:05:00,DRY,2.10,6.30,7.0,779.00,0.6
2019-01-02,00:10:00,DRY,1.63,6.73,7.0,779.00,1.3
2019-01-02,00:15:00,DRY,2.25,6.60,7.0,779.50,1.1
2019-01-02,00:20:00,DRY,2.17,6.20,7.3,779.00,0.8
2019-01-02,00:25:00,DRY,2.10,5.65,8.0,779.00,1.2
2019-01-02,00:30:00,DRY,1.47,6.20,6.7,779.00,0.5
2019-01-02,00:35:00,DRY,0.25,6.50,6.5,779.00,0.9
2019-01-02,00:40:00,DRY,1.13,6.37,7.0,779.33,1.9
2019-01-02,00:45:00,DRY,1.85,6.00,7.0,779.00,0.2
2019-01-02,00:50:00,DRY,1.80,6.77,7.0,779.00,0.7
2019-01-02,00:55:00,DRY,1.65,6.55,7.0,779.00,0.9
2019-01-02,01:00:00,DRY,1.57,6.87,6.7,779.33,1.9
2019-01-02,01:05:00,DRY,1.90,7.35,6.0,779.00,1.0
2019-01-02,01:10:00,DRY,2.27,6.83,6.0,779.00,1.4
2019-01-02,01:15:00,DRY,2.25,6.45,7.0,779.00,1.8
2019-01-02,01:20:00,DRY,2.27,6.40,7.3,779.00,0.8
2019-01-02,01:25:00,DRY,2.40,6.10,7.5,779.00,0.3
2019-01-02,01:30:00,DRY,2.30,6.13,8.0,779.00,1.5
2019-01-02,01:35:00,DRY,2.15,6.35,7.0,779.00,0.6
2019-01-02,01:40:00,DRY,2.33,6.40,7.0,779.00,0.8
2019-01-02,01:45:00,DRY,2.55,6.40,7.0,779.00,1.1
2019-01-02,01:50:00,DRY,2.50,6.20,7.0,779.00,1.1
2019-01-02,01:55:00,DRY,2.25,5.75,7.0,779.00,1.1
2019-01-02,02:00:00,DRY,2.23,5.80,7.3,779.00,0.9
2019-01-02,02:05:00,DRY,2.15,5.40,8.0,779.00,0.8
2019-01-02,02:10:00,DRY,2.70,5.37,7.7,779.00,1.2
2019-01-02,02:15:00,DRY,3.15,6.10,7.0,779.00,1.2
2019-01-02,02:20:00,DRY,3.83,6.17,7.0,779.00,1.7
2019-01-02,02:25:00,DRY,3.80,6.10,7.5,779.00,2.2
2019-01-02,02:30:00,DRY,3.47,6.03,7.0,779.00,1.1
2019-01-02,02:35:00,DRY,3.60,6.30,7.0,779.00,2.0
2019-01-02,02:40:00,DRY,3.57,5.87,7.7,779.00,1.2
2019-01-02,02:45:00,DRY,2.95,5.65,8.0,779.00,1.2
2019-01-02,02:50:00,DRY,3.37,5.53,8.0,779.00,1.6
2019-01-02,02:55:00,DRY,3.05,5.60,8.0,779.00,1.6
2019-01-02,03:00:00,DRY,2.73,6.00,7.3,779.00,1.4
2019-01-02,03:05:00,DRY,2.45,5.45,7.5,779.00,1.1
2019-01-02,03:10:00,DRY,2.27,5.20,7.7,779.00,1.4
2019-01-02,03:15:00,DRY,2.60,5.65,7.0,779.00,0.7
2019-01-02,03:20:00,DRY,2.63,6.43,6.7,779.00,1.3
2019-01-02,03:25:00,DRY,2.75,6.50,6.0,779.00,1.8
2019-01-02,03:30:00,DRY,2.83,6.43,6.0,779.00,1.4
2019-01-02,03:35:00,DRY,2.85,6.35,6.0,779.00,1.7
2019-01-02,03:40:00,DRY,2.63,6.40,6.0,779.00,1.3
2019-01-02,03:45:00,DRY,2.20,6.00,7.0,779.00,1.4
2019-01-02,03:50:00,DRY,2.03,6.10,6.3,779.00,1.8
2019-01-02,03:55:00,DRY,1.85,6.00,7.0,779.00,1.4
2019-01-02,04:00:00,DRY,1.07,6.33,6.3,779.00,1.2
2019-01-02,04:05:00,DRY,0.40,6.60,6.0,779.00,1.4
2019-01-02,04:10:00,DRY,0.33,6.63,6.0,779.00,1.3
2019-01-02,04:15:00,DRY,0.60,6.55,6.0,779.00,0.9
2019-01-02,04:20:00,DRY,0.73,6.53,6.0,779.00,1.4
2019-01-02,04:25:00,DRY,0.25,6.50,6.0,779.00,2.2
2019-01-02,04:30:00,DRY,0.33,6.63,6.0,779.00,0.6
2019-01-02,04:35:00,DRY,0.40,6.75,6.0,779.00,1.3
2019-01-02,04:40:00,DRY,0.57,7.07,5.3,779.00,1.4
2019-01-02,04:45:00,DRY,0.85,7.45,5.0,779.00,1.4
2019-01-02,04:50:00,DRY,0.90,7.77,5.0,779.00,1.8
2019-01-02,04:55:00,DRY,0.65,7.95,5.0,779.00,0.8
2019-01-02,05:00:00,DRY,0.73,7.47,5.0,779.00,1.4
2019-01-02,05:05:00,DRY,0.55,7.55,5.0,779.00,1.0
2019-01-02,05:10:00,DRY,0.77,7.53,5.0,779.00,1.2
2019-01-02,05:15:00,DRY,1.20,7.60,5.0,779.00,1.4
2019-01-02,05:20:00,DRY,1.13,7.23,5.3,779.00,1.3
2019-01-02,05:25:00,DRY,1.35,7.65,5.0,779.00,1.2
2019-01-02,05:30:00,DRY,1.10,7.60,5.0,779.00,0.4
2019-01-02,05:35:00,DRY,0.90,7.55,5.0,779.00,1.8
2019-01-02,05:40:00,DRY,0.77,7.67,5.0,779.00,1.3
2019-01-02,05:45:00,DRY,0.90,7.70,5.0,779.00,0.3
2019-01-02,05:50:00,DRY,0.87,7.67,5.0,779.00,1.5
2019-01-02,05:55:00,DRY,1.35,7.55,5.0,779.00,1.2
2019-01-02,06:00:00,DRY,1.20,7.43,5.0,779.00,2.0
2019-01-02,06:05:00,DRY,1.05,7.45,5.0,779.00,1.6
2019-01-02,06:10:00,DRY,1.47,7.37,5.7,779.00,1.2
2019-01-02,06:15:00,DRY,1.55,7.00,5.5,779.00,1.3
2019-01-02,06:20:00,DRY,1.43,7.20,5.3,779.00,1.4
2019-01-02,06:25:00,DRY,1.65,7.05,6.0,779.00,2.0
2019-01-02,06:30:00,DRY,1.60,6.90,6.0,779.00,1.9
2019-01-02,06:35:00,DRY,1.60,7.15,6.0,779.00,0.9
2019-01-02,06:40:00,DRY,1.93,7.03,6.0,779.00,1.5
2019-01-02,06:45:00,DRY,1.75,7.30,6.0,779.00,1.4
2019-01-02,06:50:00,DRY,1.87,7.33,6.0,779.00,1.5
2019-01-02,06:55:00,DRY,1.95,7.30,6.0,779.00,2.0
2019-01-02,07:00:00,DRY,2.30,7.20,6.0,779.00,1.3
2019-01-02,07:05:00,DRY,2.65,6.95,6.0,779.00,1.2
2019-01-02,07:10:00,DRY,2.43,7.37,6.0,779.00,1.4
2019-01-02,07:15:00,DRY,2.80,7.50,6.0,779.00,1.0
2019-01-02,07:20:00,DRY,2.30,7.30,6.0,779.00,1.3
2019-01-02,07:25:00,DRY,2.45,7.35,6.0,779.00,1.2
2019-01-02,07:30:00,DRY,2.57,7.53,5.0,779.00,1.6
2019-01-02,07:35:00,DRY,2.35,7.60,5.0,779.00,1.7
2019-01-02,07:40:00,DRY,2.53,7.67,5.0,779.00,1.6
2019-01-02,07:45:00,DRY,2.00,7.70,5.0,779.00,1.8
2019-01-02,07:50:00,DRY,2.23,7.53,5.3,779.00,1.8
2019-01-02,07:55:00,DRY,3.25,7.35,6.0,779.00,2.9
2019-01-02,08:00:00,DRY,2.53,7.53,5.7,779.00,5.2
2019-01-02,08:05:00,DRY,3.10,7.55,5.0,779.00,6.8
2019-01-02,08:10:00,DRY,2.27,7.53,5.3,779.00,9.9
2019-01-02,08:15:00,DRY,3.30,7.45,5.5,779.50,11.9
2019-01-02,08:20:00,DRY,2.40,7.60,6.0,780.00,13.8
2019-01-02,08:25:00,DRY,3.15,7.50,6.0,780.00,14.8
2019-01-02,08:30:00,DRY,2.57,7.47,6.0,780.00,16.9
2019-01-02,08:35:00,DRY,2.45,7.70,6.0,780.00,17.9
2019-01-02,08:40:00,DRY,3.13,7.63,6.0,780.00,20.5
2019-01-02,08:45:00,DRY,2.95,7.60,6.0,780.00,43.1
2019-01-02,08:50:00,DRY,2.53,8.03,5.7,780.00,162.5
2019-01-02,08:55:00,DRY,2.10,8.15,5.0,780.00,179.2
2019-01-02,09:00:00,DRY,2.00,8.43,5.7,780.00,197.2
2019-01-02,09:05:00,DRY,2.05,8.60,5.5,780.00,215.8
2019-01-02,09:10:00,DRY,2.87,8.27,5.3,780.00,234.3
2019-01-02,09:15:00,DRY,2.90,8.50,5.0,780.00,252.8
2019-01-02,09:20:00,DRY,1.43,8.90,5.3,780.00,270.5
2019-01-02,09:25:00,DRY,2.90,9.00,5.0,780.00,288.4
2019-01-02,09:30:00,DRY,2.63,9.17,5.3,780.00,306.8
2019-01-02,09:35:00,DRY,2.60,9.00,6.0,780.00,323.5
2019-01-02,09:40:00,DRY,1.97,9.23,6.0,780.00,342.0
2019-01-02,09:45:00,DRY,2.00,9.40,5.5,780.00,359.7
2019-01-02,09:50:00,DRY,2.03,9.37,5.7,780.00,376.8
2019-01-02,09:55:00,DRY,1.40,9.55,6.0,780.00,391.8
2019-01-02,10:00:00,DRY,1.50,9.90,5.3,780.33,409.3
2019-01-02,10:05:00,DRY,2.70,9.70,6.5,780.00,424.7
2019-01-02,10:10:00,DRY,1.37,9.70,5.7,780.33,440.9
2019-01-02,10:15:00,DRY,1.05,9.70,6.5,781.00,456.3
2019-01-02,10:20:00,DRY,0.97,10.23,6.0,781.00,472.5
2019-01-02,10:25:00,DRY,2.00,10.20,6.0,781.00,486.5
2019-01-02,10:30:00,DRY,0.80,10.20,5.7,781.00,501.1
2019-01-02,10:35:00,DRY,1.40,10.35,6.5,780.50,515.4
2019-01-02,10:40:00,DRY,1.53,10.13,7.0,780.67,527.8
2019-01-02,10:45:00,DRY,0.55,10.40,6.5,780.00,541.7
2019-01-02,10:50:00,DRY,1.63,10.53,6.7,780.00,555.1
2019-01-02,10:55:00,DRY,1.10,10.50,7.5,780.00,567.5
2019-01-02,11:00:00,DRY,1.67,10.37,8.0,780.00,579.1
2019-01-02,11:05:00,DRY,1.10,10.20,7.0,780.00,590.4
2019-01-02,11:10:00,DRY,1.57,10.50,7.3,780.00,602.6
2019-01-02,11:15:00,DRY,1.25,10.70,7.0,780.00,613.7
2019-01-02,11:20:00,DRY,1.17,10.83,7.3,780.00,624.0
2019-01-02,11:25:00,DRY,1.25,10.85,8.5,780.00,635.8
2019-01-02,11:30:00,DRY,1.70,10.47,8.7,780.00,643.5
2019-01-02,11:35:00,DRY,0.60,10.70,8.5,780.00,654.1
2019-01-02,11:40:00,DRY,1.60,10.70,8.3,780.00,661.7
2019-01-02,11:45:00,DRY,1.45,10.35,10.5,780.00,670.1
2019-01-02,11:50:00,DRY,1.33,10.43,9.3,780.00,677.2
2019-01-02,11:55:00,DRY,1.95,10.55,10.5,780.00,685.2
2019-01-02,12:00:00,DRY,1.73,11.10,10.3,780.00,692.0
2019-01-02,12:05:00,DRY,1.30,10.40,9.5,780.00,698.9
2019-01-02,12:10:00,DRY,1.37,10.83,11.0,780.00,705.2
2019-01-02,12:15:00,DRY,0.75,10.95,10.0,779.50,710.2
2019-01-02,12:20:00,DRY,1.30,10.97,13.0,780.00,714.9
2019-01-02,12:25:00,DRY,2.25,10.90,12.0,779.50,719.4
2019-01-02,12:30:00,DRY,1.13,10.63,12.3,779.00,724.2
2019-01-02,12:35:00,DRY,0.50,10.90,9.0,779.00,726.5
2019-01-02,12:40:00,DRY,1.13,10.70,12.3,779.00,731.3
2019-01-02,12:45:00,DRY,2.00,10.60,15.0,779.00,732.3
2019-01-02,12:50:00,DRY,1.27,10.73,14.3,779.00,735.3
2019-01-02,12:55:00,DRY,0.85,11.50,16.0,779.00,737.3
2019-01-02,13:00:00,DRY,0.93,11.20,16.7,779.00,738.0
2019-01-02,13:05:00,DRY,1.45,10.90,16.5,779.00,738.6
2019-01-02,13:10:00,DRY,0.70,11.27,17.3,779.00,739.5
2019-01-02,13:15:00,DRY,0.85,10.70,17.5,779.00,740.0
2019-01-02,13:20:00,DRY,1.40,10.60,19.3,779.00,738.2
2019-01-02,13:25:00,DRY,0.60,11.20,19.0,779.00,739.9
2019-01-02,13:30:00,DRY,1.70,11.20,20.0,779.00,736.8
2019-01-02,13:35:00,DRY,1.20,10.30,23.0,779.00,729.5
2019-01-02,13:40:00,DRY,2.27,10.10,20.7,779.00,730.5
2019-01-02,13:45:00,DRY,1.95,10.35,24.0,779.00,727.5
2019-01-02,13:50:00,DRY,1.20,11.00,24.0,779.00,724.2
2019-01-02,13:55:00,DRY,1.05,10.90,23.5,779.00,720.2
2019-01-02,14:00:00,DRY,0.80,10.93,24.7,779.00,716.9
2019-01-02,14:05:00,DRY,1.15,10.50,26.5,779.00,709.5
2019-01-02,14:10:00,DRY,0.80,10.03,28.3,779.00,704.2
2019-01-02,14:15:00,DRY,2.25,9.95,28.0,779.00,699.5
2019-01-02,14:20:00,DRY,1.60,9.87,27.3,779.00,692.4
2019-01-02,14:25:00,DRY,0.90,9.85,28.5,779.00,686.4
2019-01-02,14:30:00,DRY,0.97,9.83,28.0,779.00,678.9
2019-01-02,14:35:00,DRY,1.25,9.65,30.0,779.00,673.0
2019-01-02,14:40:00,DRY,1.87,9.47,29.7,779.00,664.8
2019-01-02,14:45:00,DRY,1.65,9.55,29.0,779.00,653.8
2019-01-02,14:50:00,DRY,1.17,9.80,29.3,779.00,642.1
2019-01-02,14:55:00,DRY,1.80,9.85,28.5,779.00,634.5
2019-01-02,15:00:00,DRY,0.93,10.30,28.3,779.00,625.8
2019-01-02,15:05:00,DRY,1.25,10.65,30.5,779.00,613.0
2019-01-02,15:10:00,DRY,1.07,10.67,30.7,779.00,600.4
2019-01-02,15:15:00,DRY,1.05,10.80,32.5,779.00,591.8
2019-01-02,15:20:00,DRY,0.80,10.93,30.3,778.33,581.6
2019-01-02,15:25:00,DRY,0.70,10.60,34.0,779.00,568.2
2019-01-02,15:30:00,DRY,0.83,10.27,31.3,779.00,555.5